Weather History for KODX - January, 2013

Change the Weather History Date:

Wednesday, January 2, 2013

  Actual Average Record
Temperature  
Mean Temperature 22 °F 24 °F  
Max Temperature 34 °F 36 °F 66 °F (1997)
Min Temperature 10 °F 12 °F -11 °F (2011)
Degree Days  
Heating Degree Days 43 41  
Month to date heating degree days 83 82  
Since 1 July heating degree days 2812 2806  
Cooling Degree Days 0 0  
Month to date cooling degree days 0 0  
Year to date cooling degree days 0 0  
Moisture  
Dew Point 21 °F    
Average Humidity 75    
Maximum Humidity 85    
Minimum Humidity 64    
Precipitation  
Precipitation T in 0.01 in 0.38 in (1949)
Month to date precipitation T 0.02  
Year to date precipitation T 0.02  
Sea Level Pressure  
Sea Level Pressure 30.14 in    
Wind  
Wind Speed 10 mph (NW)    
Max Wind Speed 23 mph    
Max Gust Speed 28 mph    
Visibility 10 miles    
Events Snow    
T = Trace of Precipitation, MM = Missing Value Source: NWS Daily Summary

Daily Weather History Graph

Daily Weather History Graph

Search for Another Location

Airport or City:

Trip Planner

Search our weather history database for the weather conditions in past years. The results will help you decide how hot, cold, wet, or windy it might be!

Date:

Astronomy

Jan. 02, 2013 Rise Set
Actual Time 8:02 AM CST 5:17 PM CST
Civil Twilight 7:31 AM CST 5:48 PM CST
Nautical Twilight 6:56 AM CST 6:23 PM CST
Astronomical Twilight 6:22 AM CST 6:57 PM CST
Moon 10:56 PM CST (1/2) 10:40 AM CST (1/2)
Length of Visible Light 10h 17m
Length of Day
9h 14m
Waning Gibbous, 75% of the Moon is Illuminated
Jan 2
Waning Gibbous
Jan 4
Last Quarter
Jan 11
New
Jan 18
First Quarter
Jan 26
Full

Hourly Weather History & Observations

Time (CST) Temp. Windchill Dew Point Humidity Pressure Visibility Wind Dir Wind Speed Gust Speed Precip Events Conditions
12:53 AM 16.0 °F 8.8 °F 10.0 °F 77% 30.12 in 10.0 mi West 4.6 mph - N/A   Clear
1:53 AM 12.9 °F 5.2 °F 9.0 °F 84% 30.11 in 10.0 mi NW 4.6 mph - N/A   Clear
2:53 AM 10.9 °F 4.7 °F 7.0 °F 84% 30.12 in 10.0 mi NNW 3.5 mph - N/A   Scattered Clouds
3:53 AM 16.0 °F 10.4 °F 10.9 °F 81% 30.10 in 10.0 mi NNW 3.5 mph - N/A   Overcast
4:53 AM 17.1 °F - 12.9 °F 84% 30.11 in 8.0 mi Calm Calm - 0.00 in Snow Light Snow
5:53 AM 19.9 °F - 15.1 °F 81% 30.12 in 8.0 mi Calm Calm - 0.00 in Snow Light Snow
6:53 AM 21.0 °F - 18.0 °F 88% 30.14 in 10.0 mi Calm Calm - 0.00 in   Overcast
7:53 AM 28.0 °F 19.3 °F 25.0 °F 88% 30.13 in 10.0 mi WNW 9.2 mph - N/A   Overcast
8:53 AM 28.4 °F 18.5 °F 24.8 °F 86% 30.05 in 10.0 mi WNW 11.5 mph - N/A   Overcast
9:53 AM 30.9 °F 22.8 °F 26.1 °F 82% 30.14 in 10.0 mi NW 9.2 mph - N/A   Overcast
10:53 AM 33.1 °F 22.6 °F 26.1 °F 75% 30.16 in 10.0 mi WNW 16.1 mph - N/A   Overcast
11:53 AM 33.1 °F 21.9 °F 25.0 °F 72% 30.15 in 10.0 mi NW 18.4 mph - N/A   Overcast
12:05 PM 33.8 °F 23.2 °F 24.8 °F 70% 30.06 in 10.0 mi NW 17.3 mph - N/A   Overcast
12:16 PM 33.8 °F 22.5 °F 24.8 °F 70% 30.06 in 10.0 mi NW 19.6 mph 24.2 mph N/A   Overcast
12:28 PM 33.8 °F 23.5 °F 24.8 °F 70% 30.06 in 10.0 mi NW 16.1 mph - N/A   Overcast
12:35 PM 33.8 °F 23.2 °F 24.8 °F 70% 30.06 in 10.0 mi NW 17.3 mph 23.0 mph N/A   Overcast
12:53 PM 33.1 °F 21.9 °F 24.1 °F 70% 30.15 in 10.0 mi NW 18.4 mph - N/A   Overcast
1:18 PM 32.0 °F 21.6 °F 24.8 °F 75% 30.06 in 10.0 mi NW 15.0 mph - N/A   Overcast
1:26 PM 32.0 °F 20.8 °F 24.8 °F 75% 30.06 in 10.0 mi NW 17.3 mph - N/A   Overcast
1:53 PM 33.1 °F 23.4 °F 24.1 °F 70% 30.15 in 10.0 mi NW 13.8 mph - N/A   Overcast
2:09 PM 32.0 °F 22.5 °F 24.8 °F 75% 30.06 in 10.0 mi NW 12.7 mph - N/A   Overcast
2:53 PM 33.1 °F 23.9 °F 23.0 °F 66% 30.16 in 10.0 mi NW 12.7 mph 20.7 mph N/A   Overcast
3:09 PM 33.8 °F 24.8 °F 24.8 °F 70% 30.07 in 10.0 mi NW 12.7 mph - N/A   Overcast
3:48 PM 32.0 °F 22.1 °F 23.0 °F 69% 30.09 in 10.0 mi NW 13.8 mph 23.0 mph N/A   Overcast
3:53 PM 32.0 °F 21.2 °F 24.1 °F 73% 30.18 in 10.0 mi NW 16.1 mph 23.0 mph N/A   Overcast
4:09 PM 32.0 °F 22.5 °F 24.8 °F 75% 30.09 in 10.0 mi NW 12.7 mph - N/A   Overcast
4:23 PM 32.0 °F 22.1 °F 24.8 °F 75% 30.10 in 10.0 mi NW 13.8 mph - N/A   Overcast
4:53 PM 32.0 °F 23.6 °F 24.1 °F 73% 30.19 in 10.0 mi NW 10.4 mph - N/A   Overcast
5:04 PM 30.2 °F 21.3 °F 24.8 °F 80% 30.11 in 10.0 mi NW 10.4 mph - N/A   Overcast
5:53 PM 30.0 °F 22.4 °F 23.0 °F 75% 30.20 in 10.0 mi NNW 8.1 mph - N/A   Overcast
6:53 PM 30.0 °F 26.5 °F 23.0 °F 75% 30.22 in 10.0 mi West 3.5 mph - N/A   Overcast
7:53 PM 30.0 °F 20.0 °F 21.9 °F 72% 30.23 in 10.0 mi NW 12.7 mph - N/A   Overcast
8:40 PM 28.4 °F 17.5 °F 21.2 °F 74% 30.18 in 10.0 mi NW 13.8 mph - N/A   Overcast
8:53 PM 28.0 °F 16.5 °F 21.9 °F 78% 30.26 in 10.0 mi WNW 15.0 mph - N/A   Overcast
9:51 PM 26.6 °F 15.2 °F 21.2 °F 80% 30.21 in 10.0 mi NW 13.8 mph - N/A   Overcast
9:53 PM 27.0 °F 15.6 °F 21.0 °F 78% 30.29 in 10.0 mi NW 13.8 mph - N/A   Overcast
10:53 PM 25.0 °F 12.2 °F 19.0 °F 78% 30.31 in 10.0 mi NW 16.1 mph - N/A   Overcast
11:34 PM 24.8 °F 15.3 °F 19.4 °F 80% 30.25 in 10.0 mi NW 9.2 mph - N/A   Overcast
11:53 PM 26.1 °F 16.2 °F 19.0 °F 75% 30.32 in 10.0 mi NW 10.4 mph - N/A   Overcast